Wadesboro, NC

2:20 PM EDT on September 25, 2017 (GMT -0400)
Anson County

Weather History for KAFP - November, 2012

Change the Weather History Date:

Saturday, November 24, 2012

  Actual Average (KCLT) Record (KCLT)
Temperature  
Mean Temperature 40 °F -  
Max Temperature 53 °F 59 °F 75 °F (1958)
Min Temperature 28 °F 39 °F 16 °F (1970)
Degree Days  
Heating Degree Days 24    
Moisture  
Dew Point 25 °F    
Average Humidity 54    
Maximum Humidity 93    
Minimum Humidity 24    
Precipitation  
Precipitation 0.00 in - - ()
Sea Level Pressure  
Sea Level Pressure 30.02 in    
Wind  
Wind Speed 4 mph (NW)    
Max Wind Speed 14 mph    
Max Gust Speed 20 mph    
Visibility 10 miles    
Events      
Averages and records for this station are not official NWS values.
T = Trace of Precipitation, MM = Missing Value Source: NWS Daily Summary

Daily Weather History Graph

Daily Weather History Graph

Search for Another Location

Airport or City:

Trip Planner

Search our weather history database for the weather conditions in past years. The results will help you decide how hot, cold, wet, or windy it might be!

Date:

Astronomy

Nov. 24, 2012 Rise Set
Actual Time 7:03 AM EST 5:10 PM EST
Civil Twilight 6:36 AM EST 5:37 PM EST
Nautical Twilight 6:05 AM EST 6:08 PM EST
Astronomical Twilight 5:35 AM EST 6:38 PM EST
Moon 2:48 PM EST (11/24) 3:26 AM EST (11/24)
Length of Visible Light 11h 01m
Length of Day
10h 06m
Waxing Gibbous, 87% of the Moon is Illuminated
Nov 24
Waxing Gibbous
Nov 28
Full
Dec 6
Last Quarter
Dec 13
New
Dec 20
First Quarter

Hourly Weather History & Observations

Time (EST) Temp. Windchill Dew Point Humidity Pressure Visibility Wind Dir Wind Speed Gust Speed Precip Events Conditions
12:15 AM 51.8 °F - 33.8 °F 50% 29.93 in 10.0 mi Calm Calm - N/A   Scattered Clouds
12:35 AM 48.2 °F - 37.4 °F 66% 29.93 in 10.0 mi West 3.5 mph - N/A   Scattered Clouds
12:55 AM 50.0 °F - 33.8 °F 54% 29.93 in 10.0 mi NW 6.9 mph - N/A   Scattered Clouds
1:15 AM 50.0 °F - 32.0 °F 50% 29.95 in 10.0 mi NW 8.1 mph - N/A   Mostly Cloudy
1:35 AM 50.0 °F - 30.2 °F 47% 29.94 in 10.0 mi NW 6.9 mph - N/A   Scattered Clouds
1:55 AM 48.2 °F - 30.2 °F 50% 29.95 in 10.0 mi NNW 5.8 mph - N/A   Clear
2:15 AM 48.2 °F - 30.2 °F 50% 29.95 in 10.0 mi NW 4.6 mph - N/A   Clear
2:35 AM 46.4 °F - 30.2 °F 53% 29.95 in 10.0 mi Calm Calm - N/A   Clear
2:55 AM 44.6 °F 43.1 °F 30.2 °F 57% 29.95 in 10.0 mi WNW 3.5 mph - N/A   Clear
3:15 AM 41.0 °F 39.0 °F 30.2 °F 65% 29.96 in 10.0 mi West 3.5 mph - N/A   Clear
3:35 AM 41.0 °F - 32.0 °F 70% 29.96 in 10.0 mi Calm Calm - N/A   Clear
3:55 AM 41.0 °F - 32.0 °F 70% 29.96 in 10.0 mi Calm Calm - N/A   Clear
4:15 AM 35.6 °F - 32.0 °F 87% 29.96 in 10.0 mi Calm Calm - N/A   Clear
4:35 AM 35.6 °F - 32.0 °F 87% 29.96 in 10.0 mi Calm Calm - N/A   Clear
4:55 AM 33.8 °F - 32.0 °F 93% 29.97 in 10.0 mi Calm Calm - N/A   Clear
5:15 AM 33.8 °F 30.8 °F 30.2 °F 87% 29.98 in 10.0 mi West 3.5 mph - N/A   Clear
5:35 AM 33.8 °F 30.8 °F 32.0 °F 93% 29.98 in 10.0 mi West 3.5 mph - N/A   Clear
5:55 AM 35.6 °F - 30.2 °F 81% 29.99 in 10.0 mi Calm Calm - N/A   Clear
6:15 AM 32.0 °F - 30.2 °F 93% 30.00 in 10.0 mi Calm Calm - N/A   Clear
6:35 AM 32.0 °F - 30.2 °F 93% 30.00 in 10.0 mi Calm Calm - N/A   Clear
6:55 AM 32.0 °F - 30.2 °F 93% 30.00 in 10.0 mi Calm Calm - N/A   Clear
7:15 AM 32.0 °F - 28.4 °F 87% 30.01 in 10.0 mi Calm Calm - N/A   Clear
7:35 AM 32.0 °F - 30.2 °F 93% 30.02 in 10.0 mi Calm Calm - N/A   Clear
7:55 AM 32.0 °F - 30.2 °F 93% 30.03 in 10.0 mi Calm Calm - N/A   Clear
8:15 AM 35.6 °F - 32.0 °F 87% 30.03 in 10.0 mi Calm Calm - N/A   Clear
8:35 AM 42.8 °F - 30.2 °F 61% 30.03 in 10.0 mi Calm Calm - N/A   Clear
8:55 AM 44.6 °F 41.4 °F 30.2 °F 57% 30.04 in 10.0 mi NNW 5.8 mph - N/A   Clear
9:15 AM 44.6 °F 39.7 °F 28.4 °F 53% 30.05 in 10.0 mi NNW 9.2 mph - N/A   Clear
9:35 AM 46.4 °F 40.4 °F 26.6 °F 46% 30.05 in 10.0 mi NNW 13.8 mph 18.4 mph N/A   Clear
9:55 AM 46.4 °F 40.4 °F 26.6 °F 46% 30.06 in 10.0 mi NNW 13.8 mph 17.3 mph N/A   Clear
10:15 AM 48.2 °F - 26.6 °F 43% 30.05 in 10.0 mi NNW 12.7 mph 17.3 mph N/A   Clear
10:35 AM 48.2 °F - 24.8 °F 40% 30.05 in 10.0 mi North 10.4 mph - N/A   Clear
10:55 AM 50.0 °F - 23.0 °F 35% 30.05 in 10.0 mi North 10.4 mph - N/A   Clear
11:15 AM 51.8 °F - 23.0 °F 33% 30.04 in 10.0 mi North 5.8 mph - N/A   Clear
11:35 AM 51.8 °F - 21.2 °F 30% 30.04 in 10.0 mi NW 6.9 mph - N/A   Clear
11:55 AM 51.8 °F - 19.4 °F 28% 30.03 in 10.0 mi NW 9.2 mph 16.1 mph N/A   Clear
12:15 PM 51.8 °F - 19.4 °F 28% 30.02 in 10.0 mi WNW 10.4 mph 19.6 mph N/A   Clear
12:35 PM 51.8 °F - 19.4 °F 28% 30.01 in 10.0 mi NNW 12.7 mph 18.4 mph N/A   Clear
12:55 PM 53.6 °F - 19.4 °F 26% 30.01 in 10.0 mi NW 9.2 mph - N/A   Clear
1:15 PM 53.6 °F - 19.4 °F 26% 30.00 in 10.0 mi NW 11.5 mph - N/A   Clear
1:35 PM 53.6 °F - 19.4 °F 26% 30.00 in 10.0 mi North 8.1 mph - N/A   Clear
1:55 PM 53.6 °F - 19.4 °F 26% 29.99 in 10.0 mi WNW 11.5 mph - N/A   Clear
2:15 PM 53.6 °F - 19.4 °F 26% 29.98 in 10.0 mi WNW 9.2 mph - N/A   Clear
2:35 PM 53.6 °F - 19.4 °F 26% 29.99 in 10.0 mi NNW 9.2 mph - N/A   Clear
2:55 PM 53.6 °F - 19.4 °F 26% 29.99 in 10.0 mi North 11.5 mph 16.1 mph N/A   Clear
3:15 PM 53.6 °F - 19.4 °F 26% 29.99 in 10.0 mi NNW 9.2 mph 17.3 mph N/A   Clear
3:35 PM 53.6 °F - 17.6 °F 24% 30.00 in 10.0 mi WNW 8.1 mph - N/A   Clear
3:55 PM 53.6 °F - 19.4 °F 26% 30.00 in 10.0 mi NNW 6.9 mph - N/A   Clear
4:15 PM 51.8 °F - 19.4 °F 28% 30.01 in 10.0 mi NNW 5.8 mph - N/A   Clear
4:35 PM 51.8 °F - 19.4 °F 28% 30.01 in 10.0 mi NNW 3.5 mph - N/A   Clear
4:55 PM 48.2 °F - 19.4 °F 32% 30.02 in 10.0 mi NNW 4.6 mph - N/A   Clear
5:15 PM 46.4 °F - 21.2 °F 37% 30.03 in 10.0 mi Calm Calm - N/A   Clear
5:35 PM 46.4 °F - 19.4 °F 34% 30.03 in 10.0 mi Calm Calm - N/A   Clear
5:55 PM 44.6 °F - 19.4 °F 37% 30.04 in 10.0 mi Calm Calm - N/A   Clear
6:15 PM 39.2 °F - 24.8 °F 56% 30.05 in 10.0 mi Calm Calm - N/A   Clear
6:35 PM 37.4 °F - 26.6 °F 65% 30.06 in 10.0 mi Calm Calm - N/A   Clear
6:55 PM 35.6 °F - 26.6 °F 70% 30.07 in 10.0 mi Calm Calm - N/A   Clear
7:15 PM 37.4 °F 33.8 °F 24.8 °F 60% 30.08 in 10.0 mi NNW 4.6 mph - N/A   Clear
7:35 PM 39.2 °F 35.0 °F 19.4 °F 45% 30.08 in 10.0 mi North 5.8 mph - N/A   Clear
7:55 PM 39.2 °F 35.0 °F 17.6 °F 42% 30.09 in 10.0 mi North 5.8 mph - N/A   Clear
8:15 PM 39.2 °F 35.0 °F 17.6 °F 42% 30.09 in 10.0 mi NNW 5.8 mph - N/A   Clear
8:35 PM 37.4 °F 32.8 °F 17.6 °F 45% 30.10 in 10.0 mi North 5.8 mph - N/A   Clear
8:55 PM 37.4 °F - 17.6 °F 45% 30.10 in 10.0 mi Calm Calm - N/A   Clear
9:15 PM 32.0 °F - 19.4 °F 60% 30.11 in 10.0 mi Calm Calm - N/A   Clear
9:35 PM 32.0 °F - 21.2 °F 64% 30.12 in 10.0 mi Calm Calm - N/A   Clear
9:55 PM 32.0 °F - 21.2 °F 64% 30.12 in 10.0 mi Calm Calm - N/A   Clear
10:15 PM 30.2 °F - 21.2 °F 69% 30.12 in 10.0 mi Calm Calm - N/A   Clear
10:35 PM 30.2 °F - 21.2 °F 69% 30.13 in 10.0 mi Calm Calm - N/A   Clear
10:55 PM 28.4 °F - 21.2 °F 74% 30.13 in 10.0 mi Calm Calm - N/A   Clear
11:15 PM 30.2 °F - 21.2 °F 69% 30.13 in 10.0 mi Calm Calm - N/A   Clear
11:35 PM 30.2 °F - 21.2 °F 69% 30.14 in 7.0 mi Calm Calm - N/A   Clear
11:55 PM 28.4 °F - 21.2 °F 74% 30.14 in 10.0 mi Calm Calm - N/A   Clear